This is the latest recevied weather packets stored in our database for station/object KD9CCP. If no packets are shown the sender has not sent any weather packets the latest 10 day(s).
| Time | Temp. | Humidity | Pressure | Rain* | Wind** | Luminosity | Snow |
|---|---|---|---|---|---|---|---|
| 1777647431 | 1.67° C | 76% | 1019.5 hPa | 0 mm | - | 108 W/m² | - |
| 1777647129 | 1.67° C | 75% | 1019.3 hPa | 0 mm | - | 71 W/m² | - |
| 1777646825 | 1.67° C | 77% | 1019.1 hPa | 0 mm | - | 88 W/m² | - |
| 1777646521 | 1.67° C | 78% | 1019.1 hPa | 0 mm | - | 97 W/m² | - |
| 1777646216 | 1.67° C | 76% | 1019.3 hPa | 0 mm | - | 107 W/m² | - |
| 1777645915 | 1.67° C | 80% | 1019.1 hPa | 0 mm | - | 103 W/m² | - |
| 1777645611 | 1.11° C | 79% | 1019.2 hPa | 0 mm | - | 102 W/m² | - |
| 1777645307 | 1.11° C | 84% | 1019.2 hPa | 0 mm | - | 93 W/m² | - |
| 1777645003 | 1.11° C | 82% | 1019 hPa | 0 mm | - | 94 W/m² | - |
| 1777644701 | 0.56° C | 86% | 1019.2 hPa | 0 mm | - | 78 W/m² | - |
| 1777644396 | 0.56° C | 87% | 1018.9 hPa | 0 mm | - | 75 W/m² | - |
| 1777644094 | 0° C | 91% | 1019 hPa | 0 mm | - | 79 W/m² | - |
| 1777643790 | 0° C | 92% | 1019.2 hPa | 0 mm | - | 34 W/m² | - |
| 1777643488 | 0° C | 91% | 1019 hPa | 0 mm | - | 38 W/m² | - |
| 1777643184 | 0° C | 91% | 1019 hPa | 0 mm | - | 35 W/m² | - |
| 1777642880 | 0° C | 91% | 1019.1 hPa | 0 mm | - | 37 W/m² | - |
| 1777642578 | 0° C | 93% | 1019 hPa | 0 mm | - | 52 W/m² | - |
| 1777642274 | 0° C | 95% | 1018.9 hPa | 0 mm | - | 55 W/m² | - |
| 1777641971 | -0.56° C | 94% | 1018.8 hPa | 0 mm | - | 54 W/m² | - |
| 1777641667 | -0.56° C | 94% | 1018.9 hPa | 0 mm | - | 49 W/m² | - |
| 1777641362 | -0.56° C | 94% | 1018.7 hPa | 0 mm | - | 45 W/m² | - |
| 1777641058 | -0.56° C | 93% | 1019.1 hPa | 0 mm | - | 32 W/m² | - |
| 1777640754 | -0.56° C | 91% | 1019 hPa | 0 mm | - | 19 W/m² | - |
| 1777640451 | 0° C | 87% | 1019 hPa | 0 mm | - | 8 W/m² | - |
| 1777640148 | 0° C | 81% | 1018.8 hPa | 0 mm | - | 11 W/m² | - |
* Rain latest hour (hover to see other rain measurements)
** Current wind speed in m/s (hover to see current wind gust speed)